8,
Avoca, PA
on Wednesday, December 19, 2012

Wednesday
Previous Day Next Day
Daily Summary
 ActualAverageRecord
Temperature
Mean Temperature °F 29°F  
Max Temperature 44°F 36°F 60°F (1929)
Min Temperature 34°F 23°F -1°F (1919)
Degree Days
Heating Degree Days 26 36  
Month to date heating degree days 470 619  
Since 1 July heating degree days 1697 1932  
Cooling Degree Days 0 0  
Month to date cooling degree days 0 0  
Year to date cooling degree days 864 580  
Moisture
Dew Point 27°F   
Average Humidity 68    
Maximum Humidity 82    
Minimum Humidity 53    
Precipitation
Precipitation 0.00 in 0.08 in 0.69 in (1995)
Month to date precipitation 1.49 1.74  
Year to date precipitation 35.66 37.32  
Wind
Wind Speed 11 mph   
Max Wind Speed 26 mph   
Max Gust Speed 32 mph   
Visibility 10 miles   
Events     

Key: T is trace of precipitation, MM is missing value
Source: NWS Daily Summary
Time(EST)TemperatureDew PointHumidity Pressure Visibility Wind DirectionWind SpeedGust SpeedPrecipitationEvents Conditions
12:54 AM 37.9°F 30.9°F 76% 29.69 in 10.0 miles WSW 10.4 mph - N/A   Overcast
1:15 AM 37.4°F 30.2°F 75% 29.69 in 10.0 miles WSW 9.2 mph - N/A   Overcast
1:54 AM 36.0°F 30.0°F 79% 29.71 in 10.0 miles SW 10.4 mph - N/A   Overcast
2:54 AM 36.0°F 28.9°F 76% 29.73 in 10.0 miles SW 8.1 mph - N/A   Overcast
3:54 AM 36.0°F 28.0°F 73% 29.73 in 10.0 miles WSW 8.1 mph - N/A   Overcast
4:54 AM 35.1°F 27.0°F 72% 29.74 in 10.0 miles SW 10.4 mph - N/A   Overcast
5:54 AM 35.1°F 27.0°F 72% 29.78 in 10.0 miles WSW 8.1 mph - N/A   Overcast
6:54 AM 34.0°F 27.0°F 75% 29.80 in 10.0 miles Calm Calm - N/A   Partly Cloudy
7:54 AM 35.1°F 27.0°F 72% 29.83 in 10.0 miles NNW 4.6 mph - N/A   Clear
8:54 AM 37.9°F 26.1°F 62% 29.85 in 10.0 miles NW 8.1 mph - N/A   Clear
9:54 AM 39.9°F 28.0°F 63% 29.88 in 10.0 miles NW 11.5 mph - N/A   Mostly Cloudy
10:03 AM 39.2°F 28.4°F 65% 29.86 in 10.0 miles NNW 13.8 mph 21.9 mph N/A   Mostly Cloudy
10:13 AM 39.2°F 26.6°F 61% 29.86 in 10.0 miles NW 13.8 mph - N/A   Mostly Cloudy
10:54 AM 39.9°F 27.0°F 60% 29.88 in 10.0 miles NW 17.3 mph - N/A   Partly Cloudy
11:54 AM 42.1°F 28.0°F 58% 29.89 in 10.0 miles NNW 18.4 mph 24.2 mph N/A   Scattered Clouds
12:54 PM 41.0°F 27.0°F 57% 29.91 in 10.0 miles NNW 15.0 mph - N/A   Mostly Cloudy
1:54 PM 43.0°F 26.1°F 51% 29.91 in 10.0 miles NW 20.7 mph 28.8 mph N/A   Partly Cloudy
2:54 PM 41.0°F 27.0°F 57% 29.95 in 10.0 miles NNW 20.7 mph 28.8 mph N/A   Overcast
3:54 PM 39.9°F 25.0°F 55% 29.98 in 10.0 miles NW 17.3 mph 23.0 mph N/A   Overcast
4:54 PM 39.0°F 26.1°F 60% 30.01 in 10.0 miles NW 9.2 mph - N/A   Overcast
5:54 PM 39.0°F 26.1°F 60% 30.05 in 10.0 miles WNW 5.8 mph - N/A   Overcast
6:54 PM 39.0°F 26.1°F 60% 30.08 in 10.0 miles WNW 4.6 mph - N/A   Overcast
7:54 PM 39.0°F 26.1°F 60% 30.09 in 10.0 miles North 8.1 mph - N/A   Overcast
8:54 PM 39.0°F 26.1°F 60% 30.10 in 10.0 miles NNW 6.9 mph - N/A   Overcast
9:54 PM 39.0°F 27.0°F 62% 30.12 in 10.0 miles NNW 9.2 mph - N/A   Overcast
10:54 PM 37.9°F 27.0°F 65% 30.14 in 10.0 miles North 13.8 mph 20.7 mph N/A   Mostly Cloudy
11:54 PM 36.0°F 27.0°F 70% 30.16 in 10.0 miles North 9.2 mph - N/A   Mostly Cloudy
Astronomy
Sunrise:07:24 AM (EST) Moon Rise:11:28 AM (EST)12/19
Sunset:04:36 PM (EST) Moon Set:No Moon Set/
Moon Phase
Dec. 19 Dec. 20 Dec. 28 Jan. 04 Jan. 11

Copyright © 2014 The Weather Underground, Inc.
8,